Location: Lhota
(50.0887°N, 14.0116°E)
Time: 19:27:30
(UTC+00:00)

Sich 1 - Pass Details

Date: 19 May 2025
Orbit: 574 x 603 km, 82.5° (Epoch: 20 June)

Event Time Altitude Azimuth Distance (km) Brightness Sun altitude
Rises 22:31:17 0° 347° (NNW) 2,838 8.1 -19.6°
Reaches altitude 10° 22:33:32 10° 344° (NNW) 1,927 6.8 -19.7°
Maximum altitude 22:37:43 62° 264° (W) 663 3.1 -19.8°
Enters shadow 22:38:41 47° 210° (SSW) 782 3.2 -19.8°
